Temperature
19 20 20 20 23 23 23 23 23 23 23 22 22 22 23 23 23 21 19 19 18 17 15 15 14 14 13 13 13 12 12 12 11 11 11 11 11 10 10 10 11 11 11 11 11 11 11 11 11
19 20 20 22 23 23 22 23 23 23 22 21 21 22 22 22 20 19 19 19 18 16 15 14 14 13 13 13 12 12 12 12 11 11 11 10 10 10 10 10 10 11 11 11 11 11 11 11 12
19 20 21 23 23 23 23 23 23 22 21 21 22 21 22 21 19 18 19 19 17 16 15 14 14 13 13 12 12 12 11 11 11 11 10 10 10 10 10 10 10 10 11 11 11 11 11 11 11
20 20 22 23 22 22 23 23 22 22 21 21 22 22 21 19 18 19 19 18 17 16 15 14 14 13 13 12 12 12 11 11 11 10 10 10 10 10 10 10 10 10 10 10 10 11 11 11 11
20 22 23 22 22 22 22 22 21 23 23 22 22 23 21 19 19 19 19 18 17 16 15 14 14 13 13 12 12 11 11 11 10 10 10 10 10 10 10 10 10 10 10 10 10 10 10 11 11
20 22 23 22 22 22 22 21 22 23 23 22 22 22 21 19 19 19 18 17 16 16 15 14 14 13 12 12 11 11 11 11 10 10 10 10 10 10 10 10 10 10 10 10 10 10 10 10 10
21 22 22 22 22 22 22 21 22 23 23 22 21 22 21 18 19 18 18 17 16 15 15 14 13 13 12 12 11 11 11 10 10 10 10 10 9 9 9 10 10 10 10 9 9 9 10 10 10
20 22 21 21 22 22 22 21 21 22 22 20 20 22 22 18 19 18 17 17 15 15 14 14 13 12 12 12 11 11 11 10 10 10 10 10 9 9 9 9 9 9 9 9 9 9 9 9 9
19 22 21 21 21 22 21 21 21 19 20 20 19 20 20 19 19 18 17 17 16 15 14 13 13 12 12 11 11 11 10 10 10 10 10 9 9 9 9 9 9 9 9 9 9 9 9 9 9
20 21 21 21 21 22 21 21 21 20 21 21 20 19 20 19 18 18 17 17 17 16 15 14 13 12 11 11 11 11 10 10 10 10 9 9 9 9 9 9 9 9 9 9 9 9 9 9 8
20 21 21 20 20 20 20 20 20 21 22 22 21 20 19 19 18 17 17 17 17 16 15 14 13 12 12 11 11 10 10 10 10 9 9 9 9 9 8 8 8 8 8 8 8 8 8 8 8
20 20 20 20 19 19 20 20 20 20 21 20 19 19 18 18 18 18 17 16 16 16 15 14 13 12 12 11 11 10 10 10 10 9 9 9 9 8 8 8 8 8 8 8 8 8 8 8 8
20 20 19 19 18 18 18 19 20 20 20 19 19 18 18 18 18 17 16 16 16 16 15 15 14 13 12 11 11 10 10 10 10 9 9 9 9 8 8 8 8 8 8 8 8 8 8 8 8
20 19 19 18 18 17 18 19 18 20 19 18 18 18 18 18 17 17 17 17 16 16 15 15 14 13 12 11 11 11 10 10 10 9 9 9 9 8 8 8 8 8 8 8 8 8 8 8 8
18 19 20 19 18 18 18 19 20 20 18 18 18 18 18 17 17 17 17 17 16 16 15 15 14 13 12 12 11 11 10 10 10 9 9 9 9 8 8 8 8 8 8 8 8 8 8 8 8
19 19 19 20 19 18 18 20 21 19 18 19 19 19 18 17 17 17 17 17 16 16 15 15 14 13 12 12 11 11 10 10 10 9 9 9 9 9 8 8 8 8 8 8 8 8 7 7 7
19 19 19 20 19 18 19 19 21 19 18 19 19 19 18 18 17 17 17 17 17 16 15 15 14 13 13 12 11 11 10 10 10 9 9 9 9 9 9 9 8 8 8 8 8 7 7 7 7
19 19 19 19 19 18 18 19 21 20 19 19 19 19 18 18 17 17 17 17 17 16 15 15 14 13 13 12 11 11 10 10 10 9 9 9 9 9 9 9 9 8 8 8 8 7 7 7 7
19 19 19 19 19 17 18 19 20 20 20 19 19 19 18 18 17 16 17 17 17 16 15 15 14 13 12 12 11 11 10 10 10 9 9 9 9 9 9 9 9 8 8 8 7 7 7 7 7
18 18 18 19 17 17 18 19 20 20 19 19 19 19 18 17 16 16 17 17 16 16 16 15 14 14 13 12 11 11 10 10 10 10 10 9 9 9 9 9 9 8 8 8 7 7 7 6 6
17 18 18 18 18 17 17 19 20 21 19 18 17 17 17 16 16 15 16 16 16 16 15 15 14 14 13 12 11 11 10 10 10 10 10 10 10 9 9 9 9 8 8 8 7 7 7 6 6
17 18 17 17 17 18 17 18 20 20 20 19 19 18 17 15 15 14 15 15 16 16 15 15 14 13 13 12 11 11 11 10 10 10 10 10 10 9 9 9 9 8 8 7 7 7 6 6 5
17 16 16 16 17 17 17 17 20 20 20 21 20 18 16 14 14 14 15 15 15 15 15 14 14 13 13 12 11 11 11 10 11 10 10 10 10 9 9 9 8 8 8 7 7 7 6 6 5
15 15 15 15 16 16 17 17 19 21 20 20 20 18 16 14 13 13 14 14 14 14 14 14 13 13 12 12 11 11 11 11 11 10 10 10 10 9 9 9 8 8 7 7 7 6 6 6 5
16 17 16 16 16 17 16 16 18 21 20 18 18 17 16 14 13 13 13 14 14 14 14 13 13 13 12 12 11 11 11 11 10 10 10 10 9 9 9 8 8 8 7 7 7 6 6 5 5
16 17 17 17 17 18 15 16 19 20 18 17 16 15 14 13 13 13 13 14 14 14 13 13 13 13 12 12 11 11 11 11 10 10 10 10 9 9 9 8 8 7 7 7 6 6 5 5 4
16 16 18 17 16 16 17 17 18 19 19 18 18 16 15 14 13 13 13 13 13 13 13 13 13 12 12 12 11 11 11 11 10 10 10 9 9 9 8 8 7 7 7 6 6 5 5 4 4
16 17 15 16 16 16 17 17 18 20 20 19 19 17 16 14 14 13 13 13 14 13 13 13 12 12 12 12 11 11 11 10 10 10 9 9 9 8 8 8 7 7 6 6 5 5 4 4 4
14 15 16 17 17 17 17 18 19 19 19 19 18 17 15 14 14 14 14 14 13 13 13 12 12 12 12 11 11 11 10 10 10 9 9 9 9 8 8 7 7 6 6 5 5 4 4 3 3
16 16 16 16 16 16 17 18 19 18 18 17 17 16 15 15 15 15 14 14 14 13 13 12 12 12 12 11 11 10 10 10 9 9 9 8 8 8 7 7 6 6 5 5 4 4 3 3 2
Wind_Speed
4 3 3 3 3 3 5 5 4 5 3 2 2 2 2 3 3 4 4 10 10 16 18 18 16 15 14 14 13 13 12 12 12 12 12 12 12 13 13 13 14 14 14 14 15 15 15 15 15
3 2 3 3 4 5 6 5 5 4 3 4 3 3 3 4 4 6 7 10 12 17 17 17 17 15 15 15 14 13 13 12 12 12 12 12 12 12 12 12 13 13 13 14 14 14 14 14 14
2 2 2 3 4 4 6 5 5 3 4 3 3 1 1 4 5 5 7 13 14 17 16 17 17 15 15 15 14 14 13 12 11 12 11 11 12 12 11 11 12 12 12 12 13 13 13 13 13
2 2 2 4 5 2 3 4 4 5 4 2 2 3 3 3 3 4 10 14 15 16 16 17 17 16 15 15 15 14 13 12 11 11 11 11 11 11 11 11 11 11 11 11 11 12 12 12 12
2 2 4 5 4 2 2 2 3 5 4 3 3 2 4 4 3 6 12 13 15 16 16 17 17 16 15 15 15 14 13 12 12 11 11 10 10 10 10 10 9 9 9 10 10 10 10 10 10
2 3 6 6 5 3 3 3 4 5 4 3 3 2 3 5 5 8 12 12 14 15 15 16 17 16 15 15 15 13 13 12 12 11 11 10 10 9 9 8 8 8 8 8 8 8 8 8 8
2 3 4 5 5 4 3 3 4 5 5 4 3 3 3 7 6 9 11 11 12 15 14 15 16 16 15 14 15 14 14 13 12 11 11 10 9 9 8 7 6 6 6 6 6 6 7 7 7
0 2 4 5 6 4 3 2 1 3 3 1 3 4 2 7 8 10 10 10 11 13 13 14 14 15 15 15 15 14 14 13 12 12 11 10 9 8 7 5 4 4 3 4 4 4 5 5 5
2 4 5 5 5 3 3 3 2 1 2 3 4 3 3 8 10 11 11 10 11 12 13 13 13 13 13 14 14 15 14 13 12 12 12 10 7 6 5 4 3 1 1 2 3 4 4 3 1
3 5 5 2 2 2 2 3 3 4 6 6 6 5 5 9 11 13 14 14 14 15 15 13 13 13 13 12 13 12 12 11 10 10 10 7 5 4 2 4 2 1 1 1 2 3 3 4 4
3 4 4 3 3 2 3 4 4 6 9 9 8 7 9 10 12 14 14 15 15 15 15 14 13 14 13 11 11 10 10 9 9 9 8 6 5 4 3 3 3 3 3 3 2 4 4 5 5
3 3 3 3 3 3 5 4 6 9 11 6 6 5 9 12 14 15 14 14 13 14 15 15 15 14 14 13 11 10 9 9 8 9 8 7 4 4 3 3 2 3 3 3 4 4 5 6 6
6 4 4 4 5 6 7 10 10 12 12 7 6 7 11 12 13 13 12 12 13 14 15 16 16 15 14 13 11 10 10 9 9 9 9 7 5 5 4 4 3 4 4 4 5 6 6 7 7
3 4 5 5 5 4 7 10 7 12 8 8 8 10 11 12 13 12 12 13 14 15 15 16 17 16 15 13 11 11 10 10 9 9 9 8 6 5 5 4 4 4 5 5 6 6 7 7 7
3 5 6 5 4 3 5 10 10 10 7 9 10 11 11 12 12 13 13 13 14 14 15 16 17 17 16 14 13 11 11 10 9 8 9 9 8 6 5 4 4 4 4 5 6 6 6 6 7
3 5 6 3 3 3 5 11 6 4 7 11 12 11 11 12 13 13 12 12 12 13 14 16 14 16 16 14 13 11 11 10 9 8 8 9 8 6 5 4 4 4 4 5 5 5 6 6 7
6 8 8 5 3 3 6 12 11 8 10 14 14 13 13 12 13 12 12 11 11 13 14 15 16 17 16 14 12 10 9 9 8 8 8 8 7 6 5 4 4 4 3 4 4 5 5 6 7
8 8 8 8 3 5 10 16 17 14 14 16 16 14 13 14 14 12 11 10 10 12 13 15 16 16 15 12 10 8 7 6 7 7 7 7 6 6 5 4 4 3 3 3 4 5 5 6 6
8 10 12 11 5 6 14 19 20 18 16 16 16 15 14 14 11 10 9 10 10 12 14 15 16 16 14 12 11 9 8 7 6 6 7 7 6 6 5 4 3 3 3 3 3 4 5 5 5
11 13 14 10 4 6 14 21 21 17 15 14 15 14 13 12 11 11 10 10 12 13 14 15 16 17 16 13 11 8 7 6 6 6 6 7 7 6 5 5 3 3 2 3 3 3 4 4 3
14 15 15 12 9 7 10 15 12 10 9 10 11 12 12 12 13 13 13 12 12 13 14 14 16 16 16 14 10 8 6 5 5 6 5 6 7 6 6 5 4 3 3 3 3 3 4 5 4
14 11 11 10 9 8 5 10 12 10 10 8 7 7 8 9 11 12 12 13 13 13 12 14 15 15 15 15 13 14 11 9 9 7 7 7 7 7 6 5 4 4 3 3 3 3 4 5 5
8 3 6 7 9 11 9 9 10 8 7 6 6 6 6 6 9 11 12 13 12 12 11 12 14 14 14 15 15 15 12 9 7 8 8 7 7 7 6 6 5 4 3 3 3 4 4 4 5
8 5 3 3 6 10 9 9 9 5 5 9 10 9 7 5 7 9 10 11 11 11 11 12 13 14 14 14 14 14 13 11 11 10 9 7 6 6 7 6 5 5 4 4 4 4 5 5 6
10 8 5 6 7 7 3 7 10 8 7 10 13 13 9 5 6 9 11 12 12 13 12 13 14 14 14 14 14 14 13 13 13 11 10 8 7 6 7 6 5 5 5 5 5 5 6 6 7
15 13 10 7 7 5 4 8 8 8 8 9 9 9 7 4 6 9 11 12 13 13 14 14 15 15 14 14 13 12 12 10 9 10 9 8 6 6 6 6 6 6 5 5 6 5 6 6 7
10 12 10 8 6 8 8 7 9 8 6 4 5 5 5 3 5 8 11 12 13 14 14 15 15 15 14 14 13 12 12 10 9 9 8 7 6 5 7 6 6 6 6 6 6 6 7 7 8
7 9 7 8 7 9 9 10 7 6 4 4 5 6 6 3 3 7 10 12 12 13 13 14 14 15 14 14 12 10 11 11 10 9 9 8 7 6 6 6 6 6 6 7 7 7 8 9 9
11 11 9 9 8 8 9 7 6 8 5 5 5 5 5 3 3 6 8 10 11 12 13 13 14 14 14 13 13 12 11 10 10 9 9 8 7 7 7 7 7 7 7 7 8 8 9 10 10
16 17 17 12 11 9 9 9 4 7 6 6 7 6 5 4 3 5 8 9 11 13 13 14 14 14 14 13 12 12 11 10 10 9 8 8 7 7 7 7 7 7 8 8 9 10 10 11 12
Wind_Direction
311 300 260 239 205 177 152 139 145 142 140 111 125 165 104 69 42 71 105 150 146 155 158 160 158 154 149 139 131 125 120 113 107 104 97 92 87 81 76 73 70 68 65 63 62 61 60 60 59
311 282 236 232 213 175 154 159 161 132 111 122 134 151 133 97 71 101 134 154 156 157 159 160 157 156 150 142 135 129 123 119 112 108 102 96 91 85 79 75 73 70 66 64 63 62 61 60 59
264 273 242 200 205 179 151 154 153 130 142 174 156 150 69 107 116 124 133 154 158 158 160 154 157 157 152 146 142 135 130 126 119 112 107 101 95 88 82 78 75 72 69 66 64 63 61 60 59
245 212 217 212 173 143 144 137 151 157 158 183 193 146 125 85 99 109 138 156 160 161 161 156 162 161 156 151 146 141 136 132 126 120 113 107 99 92 86 82 78 75 72 69 66 64 61 59 57
246 219 193 183 166 145 162 146 174 180 170 174 210 169 139 116 104 129 151 160 163 162 163 160 166 165 161 158 151 147 143 140 134 128 121 114 107 100 93 88 83 78 73 70 67 63 60 58 56
194 217 206 190 168 155 158 171 186 189 176 173 207 210 133 123 142 147 158 164 166 164 165 162 168 168 167 164 159 155 152 148 143 137 131 124 117 113 104 95 88 80 74 70 66 61 58 56 53
216 201 200 185 176 175 156 175 199 199 203 189 208 229 153 141 131 149 160 163 167 168 169 169 171 173 172 169 164 162 158 155 150 144 138 131 126 122 115 105 97 88 78 70 63 56 51 48 44
258 179 180 189 190 180 151 173 211 232 219 132 217 245 192 138 136 145 154 162 169 174 177 176 176 177 176 172 167 165 164 162 157 151 145 139 136 131 129 127 110 96 79 63 52 47 44 39 34
233 218 206 194 197 179 164 197 180 250 232 207 223 269 72 127 143 149 157 166 175 183 185 183 182 180 179 175 169 171 169 167 164 159 153 156 156 147 149 114 121 111 54 36 31 28 21 353 24
212 224 210 186 205 205 205 237 219 217 234 236 227 205 150 160 169 174 178 179 183 188 190 188 189 183 181 176 176 178 175 173 176 170 167 172 166 159 158 147 184 238 304 289 343 332 298 298 332
203 222 197 204 223 248 246 246 225 239 253 257 258 234 184 186 193 197 196 192 190 189 190 193 192 188 184 181 182 179 176 175 177 176 174 173 177 177 190 199 202 227 249 273 281 278 312 321 326
204 207 215 222 205 230 252 256 244 241 258 278 265 245 197 202 205 206 204 199 193 193 194 195 194 192 191 187 184 183 180 180 179 180 182 183 188 198 202 227 239 253 265 288 291 300 303 300 300
219 213 220 242 242 252 259 256 266 260 263 264 251 230 222 218 215 213 211 204 198 198 197 196 196 195 193 191 188 188 187 186 184 183 191 196 200 209 216 232 240 257 271 278 286 289 297 296 300
218 230 246 256 250 242 255 264 255 262 264 254 243 237 231 227 221 213 208 207 205 203 199 196 196 197 195 193 191 191 190 189 188 188 193 197 207 219 226 236 245 258 265 277 283 289 294 296 299
215 249 255 235 241 241 256 263 244 259 257 259 253 245 236 230 223 220 214 212 209 205 201 197 196 196 196 196 194 191 190 189 190 190 195 199 206 216 223 239 250 260 269 276 282 289 291 295 297
212 241 247 216 226 211 245 271 263 250 253 268 265 253 240 231 226 223 218 215 211 205 200 196 193 196 195 194 191 189 190 188 188 188 193 200 206 210 219 237 250 256 264 273 282 289 292 293 298
226 243 250 253 212 220 245 275 282 273 266 271 268 258 245 236 228 222 217 214 209 204 197 193 191 193 193 190 187 184 182 184 184 183 189 196 201 207 217 230 242 246 257 269 280 286 296 300 304
233 243 253 263 248 250 267 276 284 283 271 271 269 260 247 240 232 218 209 207 202 199 193 190 188 189 186 182 180 173 173 177 179 182 187 189 193 197 206 215 226 233 247 264 276 285 289 297 305
248 253 264 272 276 270 277 283 286 286 278 271 267 260 250 243 231 208 199 194 189 187 187 186 184 184 181 180 180 178 180 177 178 179 181 183 185 188 194 199 206 220 245 261 275 285 290 295 312
234 252 265 277 257 269 288 287 285 281 274 272 271 266 257 245 220 204 194 188 186 184 184 183 183 182 183 183 181 181 173 175 173 166 173 179 180 181 186 195 199 209 232 244 261 278 291 298 309
234 247 261 273 287 259 293 287 281 282 276 273 270 267 261 244 227 207 195 190 186 185 183 182 182 183 184 178 167 153 147 152 169 174 175 177 178 178 180 190 197 205 228 246 255 266 276 290 291
241 241 252 262 276 283 300 298 295 298 295 285 290 283 270 248 230 211 197 192 189 185 180 181 179 181 180 177 178 179 185 188 190 181 176 173 179 180 182 188 197 208 225 240 250 256 268 275 282
232 192 214 243 262 277 258 268 283 289 289 312 328 319 295 260 230 211 201 194 188 180 178 178 177 179 179 183 186 190 194 189 174 171 173 175 176 181 184 192 200 212 226 239 246 251 257 262 271
158 137 143 211 250 261 251 247 278 270 287 314 320 324 319 273 228 211 197 188 183 178 177 177 177 179 181 185 188 193 190 179 172 177 178 180 179 184 189 195 206 217 228 234 242 248 253 258 263
187 206 232 235 230 248 194 239 259 275 290 298 304 310 317 283 222 203 191 188 184 182 180 180 180 181 182 186 189 191 188 184 185 184 186 186 187 192 194 199 211 220 226 234 242 248 254 255 257
196 209 224 249 253 251 203 241 259 289 294 292 291 298 306 279 221 205 198 193 190 187 185 184 185 183 182 185 188 188 185 186 189 189 187 192 195 196 192 202 215 224 229 235 241 249 251 255 255
184 212 233 253 265 267 250 253 279 273 276 295 313 324 327 302 224 208 199 197 194 192 191 189 187 184 183 185 184 185 185 186 185 184 187 191 193 188 194 205 217 227 233 240 246 250 255 256 258
212 185 184 216 241 252 254 250 248 243 264 313 332 343 344 320 228 208 202 199 197 194 192 191 191 189 185 185 185 185 186 185 183 183 187 190 191 190 198 210 222 231 238 243 246 254 258 260 260
183 193 206 214 233 246 259 250 222 236 255 286 313 331 331 312 247 212 203 200 196 193 191 192 192 190 188 188 185 184 184 183 185 188 191 192 194 197 207 216 226 236 244 248 251 255 259 261 264
212 209 204 216 224 232 257 263 210 237 254 264 283 301 310 302 253 219 204 195 194 195 194 195 194 194 192 188 187 186 183 183 188 192 192 193 198 203 212 221 232 241 247 251 255 260 261 263 266
Height
1539 1540 1541 1542 1541 1539 1542 1542 1541 1543 1544 1546 1547 1547 1545 1546 1547 1553 1553 1551 1552 1553 1555 1556 1558 1559 1560 1561 1562 1562 1563 1563 1562 1562 1562 1561 1560 1559 1559 1558 1557 1556 1556 1555 1554 1553 1552 1552 1551
1539 1541 1543 1542 1538 1543 1545 1541 1542 1543 1546 1548 1548 1548 1547 1548 1550 1551 1551 1551 1552 1554 1555 1557 1558 1560 1561 1561 1562 1563 1563 1563 1563 1563 1562 1562 1561 1561 1560 1559 1558 1557 1556 1556 1555 1554 1553 1553 1551
1540 1541 1543 1539 1538 1539 1542 1541 1542 1545 1547 1548 1548 1548 1548 1550 1551 1552 1551 1552 1553 1554 1556 1557 1558 1560 1561 1562 1562 1563 1563 1563 1564 1563 1563 1563 1562 1561 1561 1560 1559 1558 1557 1557 1556 1555 1554 1554 1553
1541 1543 1542 1538 1540 1541 1540 1541 1544 1545 1547 1548 1547 1548 1549 1550 1551 1551 1551 1552 1553 1555 1556 1557 1558 1560 1561 1562 1563 1563 1564 1564 1564 1564 1564 1564 1563 1562 1562 1561 1560 1559 1559 1558 1557 1556 1556 1555 1554
1542 1542 1539 1540 1542 1541 1542 1544 1545 1544 1545 1547 1547 1546 1549 1550 1549 1550 1551 1552 1553 1555 1556 1557 1558 1560 1561 1562 1563 1564 1564 1564 1565 1565 1564 1564 1564 1563 1562 1562 1561 1561 1560 1559 1558 1558 1557 1556 1555
1543 1540 1539 1541 1542 1542 1543 1545 1545 1544 1545 1547 1547 1546 1548 1549 1549 1550 1551 1552 1554 1555 1556 1557 1558 1560 1561 1562 1563 1564 1564 1565 1565 1565 1565 1565 1564 1564 1563 1563 1562 1562 1561 1560 1559 1559 1558 1557 1556
1543 1539 1539 1540 1542 1542 1543 1545 1544 1543 1544 1546 1547 1546 1547 1548 1548 1549 1551 1552 1553 1555 1556 1557 1558 1560 1561 1562 1563 1564 1565 1565 1566 1566 1566 1565 1565 1565 1564 1564 1563 1562 1562 1561 1560 1559 1558 1557 1556
1542 1541 1541 1541 1541 1542 1544 1545 1545 1544 1544 1546 1546 1545 1546 1547 1547 1548 1549 1551 1552 1554 1555 1557 1558 1560 1561 1562 1563 1564 1564 1565 1566 1566 1566 1566 1566 1565 1565 1564 1564 1563 1562 1562 1561 1560 1559 1558 1557
1542 1542 1541 1541 1541 1541 1543 1544 1545 1545 1545 1545 1545 1545 1545 1545 1545 1547 1548 1549 1550 1552 1553 1555 1557 1559 1560 1562 1562 1563 1564 1565 1565 1566 1566 1566 1566 1566 1566 1565 1564 1563 1563 1562 1561 1560 1559 1558 1557
1542 1541 1540 1541 1541 1541 1543 1543 1544 1544 1543 1543 1543 1543 1542 1543 1543 1545 1546 1547 1548 1549 1551 1553 1555 1557 1559 1560 1561 1563 1564 1564 1565 1566 1566 1566 1567 1566 1566 1565 1564 1563 1563 1562 1561 1560 1559 1558 1558
1541 1539 1540 1542 1542 1543 1543 1543 1543 1542 1540 1540 1540 1541 1540 1540 1541 1542 1544 1545 1546 1547 1549 1550 1553 1555 1556 1558 1560 1562 1563 1564 1565 1565 1566 1566 1566 1566 1565 1565 1564 1564 1563 1562 1561 1560 1560 1558 1557
1540 1540 1541 1541 1542 1542 1542 1541 1540 1540 1538 1538 1538 1538 1537 1537 1538 1539 1541 1542 1543 1545 1546 1548 1550 1552 1554 1556 1558 1559 1561 1562 1563 1564 1564 1565 1565 1565 1565 1564 1564 1563 1563 1562 1561 1560 1559 1557 1556
1539 1540 1541 1541 1541 1541 1541 1539 1538 1535 1535 1534 1534 1534 1534 1535 1536 1537 1538 1539 1540 1541 1543 1545 1547 1549 1551 1554 1555 1557 1559 1560 1562 1562 1563 1563 1564 1564 1564 1563 1563 1562 1561 1560 1559 1558 1557 1556 1554
1539 1539 1539 1539 1539 1539 1539 1536 1537 1531 1532 1531 1531 1530 1531 1531 1532 1533 1534 1535 1536 1538 1540 1542 1543 1546 1548 1551 1553 1555 1557 1558 1560 1561 1561 1562 1562 1562 1562 1562 1561 1561 1560 1559 1558 1557 1555 1554 1552
1539 1538 1536 1537 1537 1537 1538 1533 1530 1528 1529 1528 1528 1527 1527 1527 1527 1528 1529 1531 1532 1534 1536 1538 1540 1543 1545 1548 1550 1553 1554 1556 1558 1559 1560 1560 1561 1561 1561 1560 1560 1559 1558 1557 1556 1555 1553 1551 1549
1537 1536 1535 1533 1535 1535 1537 1529 1524 1526 1526 1524 1524 1523 1523 1522 1522 1524 1525 1526 1527 1529 1531 1533 1536 1539 1542 1545 1548 1550 1552 1554 1555 1556 1557 1558 1558 1559 1559 1559 1558 1557 1556 1555 1554 1552 1551 1549 1547
1534 1533 1532 1532 1533 1533 1533 1526 1521 1523 1522 1520 1519 1518 1518 1518 1518 1518 1520 1521 1522 1524 1526 1528 1531 1535 1538 1542 1545 1547 1550 1551 1553 1554 1555 1556 1556 1557 1557 1556 1556 1555 1554 1553 1551 1550 1548 1547 1544
1530 1531 1531 1530 1529 1531 1529 1522 1517 1517 1517 1514 1512 1512 1512 1512 1512 1514 1515 1516 1518 1519 1521 1524 1528 1531 1535 1538 1542 1544 1547 1548 1550 1551 1552 1553 1554 1554 1554 1554 1553 1552 1551 1550 1549 1547 1545 1544 1541
1528 1529 1529 1527 1528 1530 1524 1517 1511 1510 1509 1508 1506 1505 1505 1505 1507 1508 1509 1511 1513 1515 1517 1520 1523 1527 1531 1534 1537 1540 1543 1545 1547 1548 1550 1551 1551 1551 1551 1551 1550 1549 1548 1547 1546 1545 1543 1541 1539
1529 1529 1527 1525 1529 1529 1521 1514 1505 1503 1502 1502 1500 1499 1499 1500 1501 1502 1504 1506 1509 1511 1513 1516 1519 1523 1527 1531 1534 1538 1540 1542 1544 1546 1547 1548 1548 1549 1549 1548 1547 1547 1546 1544 1543 1542 1540 1538 1536
1527 1526 1524 1525 1524 1525 1524 1508 1498 1496 1498 1497 1496 1495 1494 1494 1496 1497 1499 1502 1504 1507 1510 1513 1516 1520 1524 1527 1531 1534 1537 1539 1541 1542 1544 1545 1545 1546 1546 1545 1545 1544 1543 1542 1540 1539 1537 1536 1534
1523 1522 1525 1527 1527 1520 1524 1516 1496 1492 1492 1492 1491 1490 1490 1490 1491 1492 1494 1497 1500 1503 1506 1510 1513 1517 1520 1524 1527 1530 1532 1535 1537 1539 1541 1542 1542 1543 1543 1542 1542 1541 1540 1538 1537 1536 1534 1532 1531
1518 1523 1526 1526 1525 1523 1519 1519 1497 1490 1489 1486 1487 1487 1486 1486 1486 1487 1490 1493 1496 1500 1503 1507 1510 1514 1517 1520 1524 1527 1530 1533 1535 1536 1538 1539 1539 1539 1540 1539 1538 1538 1536 1535 1534 1532 1531 1529 1528
1522 1524 1527 1527 1523 1522 1513 1515 1498 1486 1485 1484 1484 1484 1484 1483 1482 1484 1486 1489 1492 1496 1499 1503 1507 1510 1513 1517 1520 1523 1526 1529 1531 1533 1534 1535 1536 1536 1536 1536 1535 1534 1533 1532 1530 1528 1527 1525 1524
1518 1520 1523 1521 1519 1512 1514 1514 1496 1482 1485 1485 1484 1482 1482 1480 1480 1481 1482 1485 1489 1492 1496 1499 1503 1506 1510 1513 1517 1520 1523 1526 1528 1529 1531 1532 1532 1532 1532 1532 1531 1530 1529 1528 1526 1524 1523 1521 1520
1511 1511 1515 1516 1510 1506 1516 1508 1487 1482 1484 1484 1483 1481 1479 1478 1477 1478 1480 1482 1486 1489 1492 1496 1499 1502 1506 1510 1513 1516 1519 1522 1524 1526 1527 1528 1529 1529 1529 1528 1528 1526 1525 1523 1522 1520 1519 1517 1515
1508 1508 1504 1508 1511 1512 1501 1495 1487 1481 1480 1480 1480 1479 1477 1476 1475 1476 1477 1480 1483 1486 1489 1492 1496 1499 1503 1506 1510 1513 1515 1518 1520 1522 1523 1524 1525 1525 1525 1524 1523 1522 1521 1519 1517 1516 1514 1512 1510
1500 1500 1509 1509 1510 1507 1496 1494 1485 1476 1476 1477 1477 1477 1476 1474 1474 1474 1475 1477 1480 1483 1486 1489 1492 1496 1499 1503 1506 1509 1512 1514 1516 1518 1519 1520 1520 1520 1520 1520 1519 1517 1516 1514 1513 1511 1509 1507 1505
1501 1502 1498 1498 1497 1498 1495 1486 1474 1473 1474 1475 1475 1475 1474 1473 1472 1472 1473 1475 1477 1480 1482 1485 1489 1492 1495 1499 1502 1505 1508 1510 1512 1513 1515 1516 1516 1516 1516 1515 1514 1513 1511 1509 1508 1506 1503 1501 1499
1488 1488 1491 1496 1495 1495 1489 1481 1469 1472 1473 1474 1474 1473 1472 1471 1470 1470 1471 1472 1474 1476 1478 1481 1484 1488 1491 1495 1498 1501 1503 1505 1507 1509 1510 1511 1511 1511 1511 1510 1509 1507 1506 1504 1502 1500 1497 1495 1492